Change the Weather History Date:

Saturday, March 12, 2011

  Actual Average Record
Temperature  
Mean Temperature 76 °F 73 °F  
Max Temperature 80 °F 78 °F 84 °F (1979)
Min Temperature 71 °F 67 °F 56 °F (1960)
Degree Days  
Heating Degree Days 0 0  
Month to date heating degree days 0 0  
Since 1 July heating degree days 0 0  
Cooling Degree Days 11 7  
Month to date cooling degree days 122 84  
Year to date cooling degree days 531 479  
Growing Degree Days 26 (Base 50)    
Moisture  
Dew Point 67 °F    
Average Humidity 76    
Maximum Humidity 84    
Minimum Humidity 67    
Precipitation  
Precipitation T in 0.16 in 4.32 in (1962)
Month to date precipitation 6.29 1.77  
Year to date precipitation 15.05 8.68  
Snow  
Snow 0.00 in - - ()
Month to date snowfall 0.0  
Since 1 July snowfall 0.0  
Snow Depth 0.00 in    
Sea Level Pressure  
Sea Level Pressure 30.12 in    
Wind  
Wind Speed 12 mph (NE)    
Max Wind Speed 15 mph    
Max Gust Speed 18 mph    
Visibility 10 miles    
Events Rain    
T = Trace of Precipitation, MM = Missing Value Source: NWS Daily Summary

Daily Weather History Graph

Daily Weather History Graph

Search for Another Location

Airport or City:

Trip Planner

Search our weather history database for the weather conditions in past years. The results will help you decide how hot, cold, wet, or windy it might be!

Date:

Astronomy

Mar. 12, 2011 Rise Set
Actual Time 6:48 AM HST 6:45 PM HST
Civil Twilight 6:26 AM HST 7:07 PM HST
Nautical Twilight 6:00 AM HST 7:33 PM HST
Astronomical Twilight 5:34 AM HST 7:59 PM HST
Moon 11:57 AM HST (3/12) 12:54 AM HST (3/12)
Length of Visible Light 12h 41m
Length of Day
11h 56m
Waxing Crescent, 49% of the Moon is Illuminated
Mar 12
Waxing Crescent
Mar 12
First Quarter
Mar 19
Full
Mar 26
Last Quarter
Apr 3
New

Hourly Weather History & Observations

Time (HST) Temp. Dew Point Humidity Pressure Visibility Wind Dir Wind Speed Gust Speed Precip Events Conditions
12:00 AM 73.4 °F 66.2 °F 78% 30.17 in 10.0 mi ENE 10.4 mph - N/A   Scattered Clouds
12:53 AM 73.0 °F 66.9 °F 81% 30.16 in 10.0 mi ENE 13.8 mph - N/A   Mostly Cloudy
1:01 AM 73.4 °F 66.2 °F 78% 30.16 in 10.0 mi ENE 13.8 mph - N/A   Scattered Clouds
1:53 AM 72.0 °F 66.0 °F 81% 30.15 in 10.0 mi NE 9.2 mph - N/A   Clear
2:53 AM 73.0 °F 66.0 °F 79% 30.13 in 10.0 mi NE 9.2 mph - N/A   Overcast
3:01 AM 73.4 °F 66.2 °F 78% 30.13 in 10.0 mi NE 10.4 mph - N/A   Overcast
3:23 AM 73.4 °F 66.2 °F 78% 30.13 in 10.0 mi NE 10.4 mph - N/A   Overcast
3:45 AM 73.4 °F 66.2 °F 78% 30.12 in 10.0 mi NE 9.2 mph - N/A   Overcast
3:53 AM 73.0 °F 66.9 °F 81% 30.12 in 8.0 mi NE 11.5 mph - N/A   Overcast
4:27 AM 73.4 °F 66.2 °F 78% 30.12 in 10.0 mi ENE 12.7 mph - 0.00 in Rain Light Rain
4:53 AM 73.0 °F 66.9 °F 81% 30.11 in 10.0 mi ENE 11.5 mph - 0.00 in   Mostly Cloudy
5:40 AM 73.4 °F 66.2 °F 78% 30.13 in 10.0 mi NE 11.5 mph - N/A   Mostly Cloudy
5:53 AM 73.0 °F 66.0 °F 79% 30.12 in 10.0 mi NE 11.5 mph - N/A   Scattered Clouds
6:53 AM 73.0 °F 66.0 °F 79% 30.13 in 10.0 mi NE 11.5 mph - N/A   Scattered Clouds
7:53 AM 73.9 °F 66.9 °F 79% 30.15 in 10.0 mi ENE 11.5 mph - N/A   Scattered Clouds
8:53 AM 77.0 °F 66.9 °F 71% 30.16 in 10.0 mi ENE 12.7 mph - N/A   Mostly Cloudy
9:53 AM 75.9 °F 66.0 °F 71% 30.17 in 10.0 mi NE 12.7 mph - N/A   Scattered Clouds
10:53 AM 78.1 °F 66.9 °F 68% 30.16 in 10.0 mi ENE 11.5 mph - N/A   Partly Cloudy
11:53 AM 79.0 °F 68.0 °F 69% 30.15 in 10.0 mi NE 11.5 mph - N/A   Partly Cloudy
12:53 PM 79.0 °F 68.0 °F 69% 30.12 in 10.0 mi NE 12.7 mph - N/A   Partly Cloudy
1:53 PM 79.0 °F 66.9 °F 66% 30.09 in 10.0 mi NE 11.5 mph - N/A   Clear
2:53 PM 78.1 °F 66.9 °F 68% 30.06 in 10.0 mi NE 10.4 mph - N/A   Partly Cloudy
3:53 PM 78.1 °F 66.9 °F 68% 30.05 in 10.0 mi NE 10.4 mph - N/A   Scattered Clouds
4:53 PM 75.0 °F 66.0 °F 73% 30.06 in 10.0 mi NE 10.4 mph - N/A   Mostly Cloudy
5:53 PM 75.0 °F 66.0 °F 73% 30.06 in 10.0 mi ENE 8.1 mph - N/A   Partly Cloudy
6:53 PM 73.9 °F 66.0 °F 76% 30.08 in 10.0 mi NE 8.1 mph - N/A   Scattered Clouds
7:53 PM 73.9 °F 66.9 °F 79% 30.10 in 10.0 mi NE 10.4 mph - N/A   Mostly Cloudy
8:29 PM 73.4 °F 66.2 °F 78% 30.11 in 10.0 mi ENE 10.4 mph - N/A   Mostly Cloudy
8:53 PM 73.0 °F 66.0 °F 79% 30.11 in 10.0 mi ENE 10.4 mph - N/A   Clear
9:53 PM 73.0 °F 66.9 °F 81% 30.12 in 10.0 mi ENE 9.2 mph - N/A   Partly Cloudy
10:53 PM 73.9 °F 68.0 °F 82% 30.13 in 10.0 mi NE 11.5 mph - N/A   Mostly Cloudy
11:28 PM 73.4 °F 68.0 °F 83% 30.13 in 6.0 mi NE 12.7 mph - 0.00 in Rain Light Rain
11:53 PM 73.0 °F 66.9 °F 81% 30.12 in 10.0 mi ENE 11.5 mph - 0.01 in   Mostly Cloudy